EDW284 LSZH-EGGD

Flight info

Callsign EDW284
Flight time N/A
Altitude 32000
Route VEBIT T10 TORPA DCT REKLA DCT RLP DCT ROTSI DCT KOTUN DCT NINAL DCT KESAX DCT KUNAV T421 ICTAM
Aircraft A320/M-SDE3FGHIRWY/LB1

Departure

Time 2026-05-05 06:03
Airport Zürich Airport (LSZH)

Arrival

Time N/A
Airport Bristol Airport (EGGD)
Time Latitude Longitude Altitude Speed Heading
2026-05-05 05:31 47.45588 8.55686 1402 ft 0 kts
2026-05-05 05:58 47.45592 8.55686 1402 ft 1 kts
2026-05-05 05:58 47.45614 8.55692 1402 ft 4 kts 12°
2026-05-05 05:58 47.45644 8.55724 1403 ft 6 kts 71°
2026-05-05 05:59 47.45643 8.55803 1404 ft 8 kts 96°
2026-05-05 05:59 47.45635 8.55897 1405 ft 10 kts 98°
2026-05-05 05:59 47.45626 8.56007 1407 ft 11 kts 95°
2026-05-05 05:59 47.45620 8.56124 1410 ft 11 kts 96°
2026-05-05 06:00 47.45607 8.56292 1412 ft 13 kts 96°
2026-05-05 06:00 47.45601 8.56382 1414 ft 13 kts 96°
2026-05-05 06:00 47.45591 8.56522 1416 ft 14 kts 96°
2026-05-05 06:00 47.45580 8.56670 1419 ft 14 kts 96°
2026-05-05 06:01 47.45570 8.56821 1422 ft 14 kts 96°
2026-05-05 06:01 47.45566 8.56967 1424 ft 13 kts 70°
2026-05-05 06:01 47.45580 8.56996 1424 ft 0 kts 43°
2026-05-05 06:01 47.45586 8.57003 1424 ft 1 kts 36°
2026-05-05 06:02 47.45600 8.57014 1424 ft 2 kts 21°
2026-05-05 06:02 47.45625 8.57019 1423 ft 4 kts
2026-05-05 06:02 47.45657 8.56999 1423 ft 6 kts 314°
2026-05-05 06:02 47.45672 8.56882 1422 ft 27 kts 276°
2026-05-05 06:03 47.45716 8.56249 1411 ft 95 kts 276°
2026-05-05 06:03 47.45805 8.54964 1393 ft 152 kts 276°
2026-05-05 06:03 47.45935 8.53272 1645 ft 173 kts 277°
2026-05-05 06:03 47.46077 8.51503 2220 ft 176 kts 277°
2026-05-05 06:04 47.46206 8.49728 2886 ft 175 kts 277°
2026-05-05 06:04 47.46283 8.47959 3533 ft 175 kts 265°
2026-05-05 06:04 47.45800 8.46307 4016 ft 183 kts 227°
2026-05-05 06:04 47.44742 8.45219 4483 ft 193 kts 213°
2026-05-05 06:05 47.43702 8.43887 4963 ft 204 kts 229°
2026-05-05 06:05 47.42788 8.42210 5407 ft 217 kts 232°
2026-05-05 06:05 47.41840 8.40385 5730 ft 237 kts 233°
2026-05-05 06:05 47.40841 8.38385 6234 ft 251 kts 233°
2026-05-05 06:06 47.39771 8.36251 6658 ft 268 kts 233°
2026-05-05 06:06 47.38645 8.33990 7270 ft 277 kts 235°
2026-05-05 06:06 47.37654 8.31533 8027 ft 281 kts 242°
2026-05-05 06:06 47.36819 8.28933 8761 ft 284 kts 244°
2026-05-05 06:07 47.35946 8.26309 9462 ft 288 kts 242°
2026-05-05 06:07 47.35039 8.23677 10113 ft 292 kts 242°
2026-05-05 06:07 47.34095 8.20973 10592 ft 305 kts 241°
2026-05-05 06:07 47.33092 8.18135 10936 ft 321 kts 240°
2026-05-05 06:08 47.32056 8.15217 11516 ft 326 kts 240°
2026-05-05 06:08 47.31011 8.12276 12192 ft 328 kts 240°
2026-05-05 06:08 47.29956 8.09302 12827 ft 329 kts 240°
2026-05-05 06:08 47.28899 8.06334 13455 ft 332 kts 239°
2026-05-05 06:09 47.27838 8.03305 14046 ft 336 kts 243°
2026-05-05 06:09 47.27175 7.99959 14627 ft 343 kts 260°
2026-05-05 06:09 47.27177 7.96451 15229 ft 349 kts 274°
2026-05-05 06:09 47.27512 7.92927 15820 ft 352 kts 275°
2026-05-05 06:10 47.27888 7.89344 16380 ft 354 kts 275°
2026-05-05 06:10 47.28258 7.85769 16944 ft 355 kts 275°
2026-05-05 06:10 47.28616 7.82183 17488 ft 357 kts 274°
2026-05-05 06:10 47.28962 7.78591 18025 ft 358 kts 274°
2026-05-05 06:11 47.29311 7.74939 18563 ft 360 kts 274°
2026-05-05 06:11 47.29651 7.71315 19076 ft 362 kts 274°
2026-05-05 06:11 47.29994 7.67657 19581 ft 363 kts 274°
2026-05-05 06:11 47.30423 7.64000 20056 ft 367 kts 278°
2026-05-05 06:12 47.31030 7.60300 20510 ft 372 kts 282°
2026-05-05 06:12 47.31781 7.56680 20933 ft 376 kts 284°
2026-05-05 06:12 47.32585 7.52997 21355 ft 379 kts 284°
2026-05-05 06:12 47.33392 7.49313 21762 ft 382 kts 285°
2026-05-05 06:13 47.34205 7.45600 22196 ft 384 kts 284°
2026-05-05 06:13 47.35026 7.41828 22601 ft 387 kts 284°
2026-05-05 06:13 47.35841 7.38068 23013 ft 389 kts 284°
2026-05-05 06:13 47.36669 7.34231 23404 ft 392 kts 284°
2026-05-05 06:14 47.37491 7.30427 23816 ft 394 kts 284°
2026-05-05 06:14 47.38318 7.26588 24221 ft 396 kts 284°
2026-05-05 06:14 47.39146 7.22726 24611 ft 398 kts 284°
2026-05-05 06:14 47.39988 7.18800 25007 ft 400 kts 283°
2026-05-05 06:15 47.40762 7.14883 25382 ft 401 kts 281°
2026-05-05 06:15 47.41397 7.10868 25725 ft 403 kts 279°
2026-05-05 06:15 47.41992 7.06837 26065 ft 405 kts 278°
2026-05-05 06:15 47.42587 7.02761 26393 ft 408 kts 278°
2026-05-05 06:16 47.43185 6.98649 26742 ft 410 kts 278°
2026-05-05 06:16 47.43778 6.94592 27069 ft 412 kts 278°
2026-05-05 06:16 47.44388 6.90404 27393 ft 415 kts 278°
2026-05-05 06:16 47.44994 6.86248 27709 ft 416 kts 278°
2026-05-05 06:17 47.45595 6.82110 28010 ft 419 kts 277°
2026-05-05 06:17 47.46207 6.77872 28318 ft 421 kts 278°
2026-05-05 06:17 47.46817 6.73640 28611 ft 423 kts 278°
2026-05-05 06:17 47.47420 6.69443 28904 ft 424 kts 277°
2026-05-05 06:18 47.47944 6.65177 29180 ft 424 kts 274°
2026-05-05 06:18 47.48310 6.60860 29432 ft 425 kts 272°
2026-05-05 06:18 47.48625 6.56521 29668 ft 427 kts 271°
2026-05-05 06:18 47.48933 6.52159 29916 ft 429 kts 271°
2026-05-05 06:19 47.49244 6.47768 30155 ft 431 kts 271°
2026-05-05 06:19 47.49554 6.43371 30406 ft 433 kts 271°
2026-05-05 06:19 47.49866 6.38951 30644 ft 434 kts 271°
2026-05-05 06:19 47.50178 6.34518 30845 ft 436 kts 270°
2026-05-05 06:20 47.50494 6.30019 31063 ft 438 kts 270°
2026-05-05 06:20 47.50808 6.25514 31272 ft 440 kts 270°
2026-05-05 06:20 47.51119 6.21042 31492 ft 441 kts 270°
2026-05-05 06:20 47.51429 6.16552 31690 ft 442 kts 270°
2026-05-05 06:21 47.51737 6.12044 31870 ft 443 kts 270°
2026-05-05 06:21 47.52047 6.07487 31885 ft 443 kts 270°
2026-05-05 06:21 47.52662 5.98485 31888 ft 445 kts 271°
2026-05-05 06:22 47.54042 5.89483 31893 ft 456 kts 284°
2026-05-05 06:22 47.56747 5.80943 31889 ft 464 kts 297°
2026-05-05 06:23 47.60693 5.73324 31893 ft 471 kts 308°
2026-05-05 06:23 47.65152 5.66222 31889 ft 472 kts 309°
2026-05-05 06:24 47.69600 5.59130 31889 ft 472 kts 309°
2026-05-05 06:24 47.74018 5.52001 31885 ft 471 kts 308°
2026-05-05 06:25 47.78433 5.44830 31883 ft 472 kts 309°
2026-05-05 06:25 47.82848 5.37642 31878 ft 472 kts 308°
2026-05-05 06:26 47.87285 5.30394 31882 ft 472 kts 308°
2026-05-05 06:26 47.91691 5.23178 31873 ft 472 kts 308°
2026-05-05 06:27 47.98277 5.12344 31865 ft 471 kts 308°
2026-05-05 06:28 48.02663 5.05100 31858 ft 471 kts 308°
2026-05-05 06:28 48.07034 4.97860 31849 ft 470 kts 308°
2026-05-05 06:29 48.11385 4.90637 31851 ft 471 kts 308°
2026-05-05 06:29 48.15756 4.83363 31847 ft 471 kts 308°
2026-05-05 06:30 48.20134 4.76053 31849 ft 471 kts 308°
2026-05-05 06:30 48.24491 4.68758 31851 ft 470 kts 307°
2026-05-05 06:31 48.28826 4.61484 31848 ft 469 kts 307°
2026-05-05 06:31 48.33151 4.54199 31850 ft 469 kts 307°
2026-05-05 06:32 48.37474 4.46898 31853 ft 469 kts 308°
2026-05-05 06:32 48.41798 4.39584 31852 ft 468 kts 307°
2026-05-05 06:33 48.46097 4.32285 31854 ft 468 kts 307°
2026-05-05 06:33 48.50408 4.24948 31853 ft 467 kts 306°
2026-05-05 06:34 48.54681 4.17652 31856 ft 466 kts 307°
2026-05-05 06:34 48.58965 4.10321 31853 ft 466 kts 307°
2026-05-05 06:35 48.63217 4.03021 31859 ft 465 kts 307°
2026-05-05 06:35 48.67500 3.95647 31862 ft 465 kts 307°
2026-05-05 06:36 48.71740 3.88352 31866 ft 465 kts 308°
2026-05-05 06:36 48.76264 3.81378 31866 ft 467 kts 311°
2026-05-05 06:37 48.80915 3.74487 31865 ft 467 kts 312°
2026-05-05 06:37 48.85531 3.67624 31865 ft 467 kts 311°
2026-05-05 06:38 48.90160 3.60707 31866 ft 467 kts 311°
2026-05-05 06:38 48.94771 3.53793 31866 ft 466 kts 311°
2026-05-05 06:39 48.99378 3.46864 31869 ft 466 kts 311°
2026-05-05 06:39 49.03975 3.39932 31869 ft 467 kts 311°
2026-05-05 06:40 49.08567 3.32988 31866 ft 466 kts 310°
2026-05-05 06:40 49.13173 3.26002 31858 ft 466 kts 311°
2026-05-05 06:41 49.17742 3.19054 31854 ft 466 kts 311°
2026-05-05 06:41 49.22345 3.12028 31854 ft 466 kts 311°
2026-05-05 06:42 49.26910 3.05053 31862 ft 466 kts 311°
2026-05-05 06:42 49.31465 2.98071 31864 ft 464 kts 311°
2026-05-05 06:43 49.36017 2.91068 31869 ft 464 kts 311°
2026-05-05 06:43 49.40570 2.84049 31869 ft 464 kts 311°
2026-05-05 06:44 49.45094 2.77052 31882 ft 463 kts 311°
2026-05-05 06:44 49.49604 2.70060 31876 ft 463 kts 311°
2026-05-05 06:45 49.54106 2.63061 31877 ft 462 kts 311°
2026-05-05 06:45 49.58618 2.56022 31882 ft 461 kts 311°
2026-05-05 06:46 49.62901 2.48788 31887 ft 459 kts 307°
2026-05-05 06:46 49.67009 2.41319 31886 ft 457 kts 307°
2026-05-05 06:47 49.71104 2.33837 31882 ft 457 kts 306°
2026-05-05 06:47 49.75194 2.26361 31892 ft 455 kts 306°
2026-05-05 06:48 49.79253 2.18927 31896 ft 455 kts 306°
2026-05-05 06:48 49.83337 2.11426 31891 ft 455 kts 306°
2026-05-05 06:49 49.87399 2.03949 31887 ft 455 kts 306°
2026-05-05 06:49 49.91452 1.96467 31895 ft 454 kts 306°
2026-05-05 06:50 49.95479 1.89007 31894 ft 452 kts 307°
2026-05-05 06:50 49.99510 1.81521 31896 ft 451 kts 307°
2026-05-05 06:51 50.03500 1.74089 31899 ft 451 kts 307°
2026-05-05 06:51 50.07680 1.66837 31902 ft 452 kts 312°
2026-05-05 06:52 50.12318 1.60229 31907 ft 453 kts 316°
2026-05-05 06:52 50.17055 1.53833 31915 ft 453 kts 317°
2026-05-05 06:53 50.21730 1.47493 31921 ft 452 kts 317°
2026-05-05 06:53 50.26448 1.41059 31926 ft 451 kts 317°
2026-05-05 06:54 50.31155 1.34616 31929 ft 450 kts 316°
2026-05-05 06:54 50.35834 1.28191 31928 ft 449 kts 316°
2026-05-05 06:55 50.40524 1.21735 31927 ft 449 kts 316°
2026-05-05 06:55 50.45181 1.15307 31929 ft 449 kts 316°
2026-05-05 06:56 50.49843 1.08851 31933 ft 448 kts 316°
2026-05-05 06:56 50.54639 1.02634 31936 ft 449 kts 320°
2026-05-05 06:57 50.59557 0.96561 31939 ft 448 kts 320°
2026-05-05 06:57 50.64445 0.90510 31941 ft 448 kts 320°
2026-05-05 06:58 50.69321 0.84445 31946 ft 448 kts 320°
2026-05-05 06:58 50.74204 0.78349 31948 ft 447 kts 320°
2026-05-05 06:59 50.79071 0.72258 31948 ft 448 kts 320°
2026-05-05 06:59 50.83946 0.66141 31950 ft 449 kts 320°
2026-05-05 07:00 50.88820 0.60003 31952 ft 448 kts 320°
2026-05-05 07:00 50.93674 0.53874 31954 ft 448 kts 320°
2026-05-05 07:01 50.98556 0.47696 31955 ft 448 kts 320°
2026-05-05 07:01 51.03392 0.41556 31954 ft 448 kts 320°
2026-05-05 07:02 51.08255 0.35368 31957 ft 449 kts 319°
2026-05-05 07:02 51.13132 0.29143 31965 ft 448 kts 319°
2026-05-05 07:03 51.17981 0.22936 31967 ft 448 kts 319°
2026-05-05 07:03 51.22843 0.16692 31972 ft 448 kts 319°
2026-05-05 07:04 51.27612 0.10270 31974 ft 446 kts 313°
2026-05-05 07:04 51.31533 0.02757 31976 ft 441 kts 301°
2026-05-05 07:05 51.34431 -0.05888 31662 ft 435 kts 289°
2026-05-05 07:05 51.35424 -0.10374 31412 ft 430 kts 283°
2026-05-05 07:05 51.36232 -0.15002 31165 ft 428 kts 282°
2026-05-05 07:05 51.36985 -0.19551 30901 ft 426 kts 282°
2026-05-05 07:06 51.37734 -0.24118 30621 ft 424 kts 282°
2026-05-05 07:06 51.38478 -0.28653 30344 ft 423 kts 282°
2026-05-05 07:06 51.39218 -0.33145 30069 ft 421 kts 282°
2026-05-05 07:06 51.39961 -0.37647 29784 ft 419 kts 282°
2026-05-05 07:07 51.40702 -0.42143 29491 ft 418 kts 282°
2026-05-05 07:07 51.41445 -0.46654 29178 ft 416 kts 282°
2026-05-05 07:07 51.42181 -0.51128 28800 ft 414 kts 282°
2026-05-05 07:07 51.42902 -0.55522 28372 ft 411 kts 282°
2026-05-05 07:08 51.43625 -0.59930 27919 ft 408 kts 283°
2026-05-05 07:08 51.44339 -0.64297 27462 ft 405 kts 282°
2026-05-05 07:08 51.45050 -0.68661 27014 ft 402 kts 282°
2026-05-05 07:08 51.45753 -0.72983 26556 ft 399 kts 282°
2026-05-05 07:09 51.46378 -0.76831 26147 ft 396 kts 282°
2026-05-05 07:09 51.47073 -0.81129 25697 ft 394 kts 282°
2026-05-05 07:09 51.47747 -0.85308 25253 ft 391 kts 282°
2026-05-05 07:09 51.48424 -0.89511 24804 ft 388 kts 282°
2026-05-05 07:10 51.49092 -0.93671 24357 ft 385 kts 282°
2026-05-05 07:10 51.49749 -0.97774 23918 ft 382 kts 282°
2026-05-05 07:10 51.50413 -1.01920 23481 ft 379 kts 282°
2026-05-05 07:10 51.51059 -1.05979 23046 ft 376 kts 282°
2026-05-05 07:11 51.51700 -1.10018 22613 ft 373 kts 282°
2026-05-05 07:11 51.52337 -1.14043 22173 ft 371 kts 283°
2026-05-05 07:11 51.52898 -1.17999 21805 ft 371 kts 280°
2026-05-05 07:11 51.53393 -1.22097 21807 ft 377 kts 279°
2026-05-05 07:12 51.53889 -1.26281 21683 ft 380 kts 279°
2026-05-05 07:12 51.54371 -1.30379 21231 ft 377 kts 279°
2026-05-05 07:12 51.54857 -1.34505 20760 ft 374 kts 279°
2026-05-05 07:12 51.55338 -1.38607 20293 ft 372 kts 279°
2026-05-05 07:13 51.55492 -1.39920 20146 ft 371 kts 280°